User: anonymous   Login
Location: Bergnerzell
(49.1816°N, 10.2565°E)
Time: 20:00:13
(UTC+00:00)
Language:

Cosmos 1825 - Orbit

View from above orbital plane
View from above orbital plane
View from above satellite
View from above satellite

Ground track
Ground track

The orbit data is extracted from the following two-line orbital elements,

1 17566U 87024A   24197.58166985  .00024840  00000-0  56430-3 0  9996
2 17566  82.4943 229.4493 0004521 137.5665 222.5933 15.42872894 47057
Epoch (UTC): 15 July 2024 13:57:36
Eccentricity: 0.0004521
inclination: 82.4943°
perigee height: 434 km
apogee height: 441 km
right ascension of ascending node: 229.4493°
argument of perigee: 137.5665°
revolutions per day: 15.42872894
mean anomaly at epoch: 222.5933°
orbit number at epoch: 4705

The dashed part of the orbit path shows where the satellite is in the earth's shadow,  

DLR